Location: Carson
(33.8314°N, 118.2820°W)
Time: 12:11:36
(UTC+00:00)

Envisat - Pass Details

Date: 23 November 2020
Orbit: 764 x 766 km, 98.1° (Epoch: 21 January)

Event Time Altitude Azimuth Distance (km) Brightness Sun altitude
Rises 13:39:22 0° 13° (NNE) 3,238 6.2 -11.3°
Reaches altitude 10° 13:41:41 10° 15° (NNE) 2,308 5.5 -10.9°
Maximum altitude 13:46:47 80° 102° (ESE) 781 3.2 -9.8°
Drops below altitude 10° 13:51:50 10° 190° (S) 2,293 5.6 -8.9°
Sets 13:54:08 0° 191° (S) 3,215 6.3 -8.4°
